Weather History for PAWG - August, 2013

Change the Weather History Date:

Tuesday, August 6, 2013

  Actual Average Record
Temperature  
Mean Temperature 60 °F -  
Max Temperature 66 °F 65 °F - (-1)
Min Temperature 55 °F 51 °F - (-1)
Degree Days  
Heating Degree Days 4    
Growing Degree Days 10 (Base 50)    
Moisture  
Dew Point 54 °F    
Average Humidity 81    
Maximum Humidity 94    
Minimum Humidity 68    
Precipitation  
Precipitation 0.00 in - - ()
Sea Level Pressure  
Sea Level Pressure 30.05 in    
Wind  
Wind Speed 3 mph (NW)    
Max Wind Speed 7 mph    
Max Gust Speed -    
Visibility 10 miles    
Events      
Averages and records for this station are not official NWS values.
T = Trace of Precipitation, MM = Missing Value Source: NWS Daily Summary

Daily Weather History Graph

Daily Weather History Graph

Search for Another Location

Airport or City:

Trip Planner

Search our weather history database for the weather conditions in past years. The results will help you decide how hot, cold, wet, or windy it might be!

Date:

Astronomy

Aug. 06, 2013 Rise Set
Actual Time 5:01 AM AKDT 8:47 PM AKDT
Civil Twilight 4:14 AM AKDT 9:34 PM AKDT
Nautical Twilight 3:05 AM AKDT 10:41 PM AKDT
Astronomical Twilight 1:27 AM AKDT 12:22 AM AKDT
Moon 5:13 AM AKDT (8/6) 8:06 PM AKDT (8/6)
Length of Visible Light 17h 20m
Length of Day
15h 46m
Waning Crescent, 0% of the Moon is Illuminated
Aug 6
Waning Crescent
Aug 6
New
Aug 14
First Quarter
Aug 20
Full
Aug 28
Last Quarter

Hourly Weather History & Observations

Time (AKDT) Temp. Dew Point Humidity Pressure Visibility Wind Dir Wind Speed Gust Speed Precip Events Conditions
12:16 AM 59.0 °F 53.6 °F 82% 30.08 in 10.0 mi WSW 3.5 mph - N/A   Overcast
12:36 AM 59.0 °F 53.6 °F 82% 30.08 in 10.0 mi West 4.6 mph - N/A   Overcast
12:56 AM 57.2 °F 53.6 °F 88% 30.08 in 10.0 mi WSW 3.5 mph - N/A   Overcast
1:16 AM 57.2 °F 53.6 °F 88% 30.07 in 9.0 mi Calm Calm - N/A   Overcast
1:36 AM 57.2 °F 53.6 °F 88% 30.07 in 10.0 mi Calm Calm - N/A   Overcast
1:56 AM 57.2 °F 53.6 °F 88% 30.07 in 10.0 mi Calm Calm - N/A   Overcast
2:16 AM 57.2 °F 53.6 °F 88% 30.07 in 10.0 mi WNW 3.5 mph - N/A   Overcast
2:36 AM 57.2 °F 53.6 °F 88% 30.07 in 10.0 mi Calm Calm - N/A   Overcast
2:56 AM 57.2 °F 51.8 °F 82% 30.06 in 9.0 mi Calm Calm - N/A   Overcast
3:16 AM 57.2 °F 53.6 °F 88% 30.06 in 4.0 mi West 3.5 mph - N/A   Overcast
3:36 AM 57.2 °F 53.6 °F 88% 30.06 in 10.0 mi WSW 3.5 mph - N/A   Overcast
3:56 AM 57.2 °F 53.6 °F 88% 30.06 in 10.0 mi West 3.5 mph - N/A   Overcast
4:16 AM 57.2 °F 53.6 °F 88% 30.06 in 10.0 mi Calm Calm - N/A   Overcast
4:36 AM 55.4 °F 53.6 °F 94% 30.06 in 10.0 mi Calm Calm - N/A   Overcast
4:56 AM 55.4 °F 53.6 °F 94% 30.06 in 10.0 mi Calm Calm - N/A   Overcast
5:16 AM 55.4 °F 51.8 °F 88% 30.06 in 9.0 mi Calm Calm - N/A   Overcast
5:36 AM 55.4 °F 51.8 °F 88% 30.06 in 10.0 mi Calm Calm - N/A   Overcast
5:56 AM 55.4 °F 53.6 °F 94% 30.06 in 10.0 mi Calm Calm - N/A   Overcast
6:16 AM 55.4 °F 51.8 °F 88% 30.06 in 10.0 mi Calm Calm - N/A   Overcast
6:36 AM 55.4 °F 51.8 °F 88% 30.07 in 10.0 mi Calm Calm - N/A   Overcast
6:56 AM 57.2 °F 53.6 °F 88% 30.07 in 10.0 mi Calm Calm - N/A   Overcast
7:16 AM 55.4 °F 51.8 °F 88% 30.07 in 10.0 mi NW 3.5 mph - N/A   Overcast
7:36 AM 57.2 °F 53.6 °F 88% 30.07 in 10.0 mi WNW 3.5 mph - N/A   Overcast
7:56 AM 57.2 °F 53.6 °F 88% 30.07 in 10.0 mi NW 3.5 mph - N/A   Overcast
8:16 AM 57.2 °F 51.8 °F 82% 30.07 in 10.0 mi NNW 3.5 mph - N/A   Overcast
8:36 AM 57.2 °F 53.6 °F 88% 30.07 in 10.0 mi NNW 3.5 mph - N/A   Overcast
8:56 AM 57.2 °F 53.6 °F 88% 30.07 in 10.0 mi NNW 4.6 mph - N/A   Overcast
9:16 AM 57.2 °F 53.6 °F 88% 30.07 in 10.0 mi NNW 4.6 mph - N/A   Overcast
9:36 AM 59.0 °F 53.6 °F 82% 30.07 in 10.0 mi Calm Calm - N/A   Overcast
9:56 AM 59.0 °F 53.6 °F 82% 30.07 in 10.0 mi NNW 3.5 mph - N/A   Overcast
10:16 AM 60.8 °F 53.6 °F 77% 30.07 in 10.0 mi NNW 3.5 mph - N/A   Overcast
10:36 AM 60.8 °F 55.4 °F 82% 30.07 in 10.0 mi North 3.5 mph - N/A   Overcast
10:56 AM 60.8 °F 55.4 °F 82% 30.07 in 10.0 mi NNW 3.5 mph - N/A   Overcast
11:16 AM 60.8 °F 55.4 °F 82% 30.07 in 10.0 mi NNW 3.5 mph - N/A   Overcast
11:36 AM 60.8 °F 55.4 °F 82% 30.07 in 10.0 mi NNW 4.6 mph - N/A   Overcast
11:56 AM 62.6 °F 55.4 °F 77% 30.07 in 10.0 mi NW 4.6 mph - N/A   Overcast
12:16 PM 60.8 °F 55.4 °F 82% 30.07 in 10.0 mi NNW 4.6 mph - N/A   Overcast
12:36 PM 62.6 °F 55.4 °F 77% 30.07 in 10.0 mi NNW 4.6 mph - N/A   Overcast
12:56 PM 62.6 °F 55.4 °F 77% 30.07 in 10.0 mi NNW 4.6 mph - N/A   Overcast
1:16 PM 62.6 °F 55.4 °F 77% 30.07 in 10.0 mi NW 5.8 mph - N/A   Overcast
1:36 PM 62.6 °F 55.4 °F 77% 30.07 in 10.0 mi NNW 5.8 mph - N/A   Overcast
1:56 PM 62.6 °F 55.4 °F 77% 30.07 in 10.0 mi NW 5.8 mph - N/A   Overcast
2:16 PM 64.4 °F 55.4 °F 73% 30.07 in 10.0 mi NW 4.6 mph - N/A   Overcast
2:36 PM 64.4 °F 53.6 °F 68% 30.06 in 10.0 mi West 3.5 mph - N/A   Overcast
2:56 PM 64.4 °F 55.4 °F 73% 30.06 in 10.0 mi NNW 5.8 mph - N/A   Overcast
3:16 PM 64.4 °F 55.4 °F 73% 30.06 in 10.0 mi NW 4.6 mph - N/A   Overcast
3:36 PM 64.4 °F 55.4 °F 73% 30.05 in 10.0 mi NNW 5.8 mph - N/A   Overcast
3:56 PM 66.2 °F 55.4 °F 68% 30.05 in 10.0 mi NNW 5.8 mph - N/A   Overcast
4:16 PM 66.2 °F 55.4 °F 68% 30.05 in 10.0 mi NNW 4.6 mph - N/A   Overcast
4:36 PM 64.4 °F 55.4 °F 73% 30.04 in 10.0 mi NW 4.6 mph - N/A   Overcast
4:56 PM 66.2 °F 55.4 °F 68% 30.04 in 10.0 mi WNW 4.6 mph - N/A   Overcast
5:16 PM 64.4 °F 55.4 °F 73% 30.04 in 10.0 mi NNW 5.8 mph - N/A   Mostly Cloudy
5:36 PM 66.2 °F 55.4 °F 68% 30.04 in 10.0 mi NW 5.8 mph - N/A   Mostly Cloudy
5:56 PM 64.4 °F 55.4 °F 73% 30.04 in 10.0 mi NW 5.8 mph - N/A   Mostly Cloudy
6:16 PM 62.6 °F 55.4 °F 77% 30.03 in 10.0 mi NW 6.9 mph - N/A   Mostly Cloudy
6:36 PM 62.6 °F 53.6 °F 72% 30.03 in 10.0 mi NW 4.6 mph - N/A   Mostly Cloudy
6:56 PM 64.4 °F 55.4 °F 73% 30.03 in 10.0 mi NW 5.8 mph - N/A   Mostly Cloudy
7:16 PM 64.4 °F 55.4 °F 73% 30.03 in 10.0 mi NW 5.8 mph - N/A   Mostly Cloudy
7:36 PM 64.4 °F 55.4 °F 73% 30.03 in 10.0 mi NW 4.6 mph - N/A   Mostly Cloudy
7:56 PM 62.6 °F 55.4 °F 77% 30.02 in 10.0 mi WNW 3.5 mph - N/A   Mostly Cloudy
8:16 PM 62.6 °F 53.6 °F 72% 30.02 in 10.0 mi Calm Calm - N/A   Scattered Clouds
8:36 PM 62.6 °F 53.6 °F 72% 30.02 in 10.0 mi Calm Calm - N/A   Scattered Clouds
8:56 PM 60.8 °F 53.6 °F 77% 30.02 in 10.0 mi SW 3.5 mph - N/A   Partly Cloudy
9:16 PM 57.2 °F 53.6 °F 88% 30.02 in 10.0 mi Calm Calm - N/A   Partly Cloudy
9:36 PM 57.2 °F 51.8 °F 82% 30.03 in 10.0 mi Calm Calm - N/A   Partly Cloudy
9:56 PM 57.2 °F 51.8 °F 82% 30.02 in 10.0 mi Calm Calm - N/A   Partly Cloudy
10:16 PM 57.2 °F 51.8 °F 82% 30.02 in 10.0 mi Calm Calm - N/A   Partly Cloudy
10:36 PM 57.2 °F 51.8 °F 82% 30.02 in 10.0 mi Calm Calm - N/A   Partly Cloudy
10:56 PM 59.0 °F 51.8 °F 77% 30.02 in 10.0 mi Calm Calm - N/A   Partly Cloudy
11:16 PM 57.2 °F 51.8 °F 82% 30.02 in 10.0 mi Calm Calm - N/A   Clear
11:36 PM 55.4 °F 51.8 °F 88% 30.02 in 10.0 mi WNW 3.5 mph - N/A   Clear
11:56 PM 55.4 °F 51.8 °F 88% 30.02 in 10.0 mi Calm Calm - N/A   Clear